Temperature
7 6 6 7 7 8 8 7 8 9 11 9 9 10 10 11 12 12 13 14 15 16 18 18 19 19 19 20 20 20 20 18 17 16 14 13 13 13 12 12 12 11 11 12
6 6 6 7 7 7 8 8 7 8 10 10 9 9 10 10 11 11 12 13 14 16 17 18 18 19 19 18 19 19 19 17 17 16 14 13 13 12 12 11 11 11 12 11
5 6 7 7 6 6 6 6 7 6 9 9 8 9 10 11 12 13 13 13 14 15 17 18 18 18 18 17 17 18 18 16 16 14 14 13 12 12 11 11 11 11 11 11
4 6 6 6 5 6 5 6 7 7 6 5 8 6 10 10 11 12 13 13 14 15 16 17 18 18 18 17 16 16 16 15 14 14 14 13 12 12 11 11 11 11 11 10
4 5 5 6 6 6 6 7 7 7 6 6 7 7 8 10 10 11 11 13 15 16 17 17 18 18 18 16 16 15 15 14 14 14 13 12 12 12 11 11 11 11 10 10
5 6 6 5 6 7 7 6 6 6 6 5 7 7 8 10 10 11 11 13 15 16 17 17 18 18 16 15 15 14 14 13 13 13 13 12 11 11 11 11 11 11 10 9
5 5 6 6 5 6 6 6 5 5 5 6 7 7 8 10 11 11 11 13 16 16 16 16 17 17 16 15 14 13 13 12 13 13 12 12 11 11 12 12 11 10 10 9
4 3 5 5 6 5 6 6 5 5 5 5 8 6 7 11 11 13 13 14 15 15 16 15 16 16 16 15 14 13 12 12 12 12 12 11 11 11 12 11 10 10 9 8
5 4 5 5 6 7 5 5 6 6 6 5 6 7 10 11 10 12 12 13 14 14 15 15 14 14 15 14 13 12 12 12 12 11 11 11 11 11 11 10 9 9 8 7
5 4 5 5 6 6 4 5 2 4 4 4 7 7 8 11 11 11 11 12 12 14 14 14 13 13 13 13 12 12 12 12 11 11 11 11 11 10 10 9 9 8 7 7
5 4 4 5 5 6 5 5 5 6 5 5 6 8 10 11 11 11 11 12 13 14 13 13 13 13 13 12 12 12 11 11 11 11 11 11 10 10 9 8 8 7 7 6
5 5 5 5 6 7 7 6 6 5 5 5 6 8 11 9 10 10 10 12 12 12 11 10 11 12 12 12 12 11 11 11 11 11 10 10 10 9 8 8 7 7 6 5
6 5 5 5 5 6 5 6 7 6 6 5 5 8 12 11 11 10 10 10 10 9 8 9 10 11 11 11 11 11 11 11 11 10 10 9 9 8 8 7 6 6 5 5
7 5 5 6 6 5 5 5 6 6 6 6 7 8 10 10 11 10 10 9 8 8 8 8 10 11 11 11 11 10 10 10 10 10 9 9 8 8 7 6 5 5 4 4
6 5 5 6 6 5 5 6 6 6 6 6 7 8 10 10 9 10 10 9 7 7 7 9 10 10 10 10 10 10 10 10 9 9 9 8 7 7 6 5 4 4 3 2
5 5 5 5 6 5 6 6 6 6 7 7 7 8 9 9 10 10 10 8 7 7 7 9 10 10 10 10 10 9 9 9 9 8 8 7 6 6 5 4 3 3 2 1
4 4 5 6 7 6 5 6 7 7 7 8 7 8 9 9 9 8 8 8 8 7 8 9 10 10 10 10 9 9 9 8 8 7 7 6 5 4 4 3 2 2 1 0
5 4 5 6 6 8 9 8 8 8 8 9 9 9 9 9 9 8 6 8 8 8 8 9 11 10 9 9 9 8 8 8 7 6 5 4 4 3 2 2 1 1 -0 -0
6 5 5 6 8 9 9 8 7 7 7 9 9 10 9 9 8 8 7 8 8 9 9 10 11 10 9 9 8 8 7 6 6 5 4 3 3 2 1 1 0 -0 -1 -1
6 6 6 7 8 9 9 8 8 8 7 9 9 9 9 8 8 7 7 8 8 9 10 10 10 9 9 8 8 7 6 5 4 3 3 2 1 1 0 -0 -1 -1 -1 -2
7 6 6 8 8 8 9 8 8 9 10 8 9 9 8 7 6 6 8 7 8 9 9 9 9 9 8 8 7 6 5 4 3 2 2 1 0 0 -0 -1 -1 -2 -2 -2
7 8 7 7 8 8 9 7 7 9 8 8 8 9 9 8 6 6 6 6 8 9 8 8 8 7 7 6 6 5 4 3 2 1 1 0 -0 -1 -1 -2 -2 -2 -3 -3
7 9 8 8 9 8 9 9 9 9 8 8 8 8 9 8 6 6 5 5 6 7 7 7 7 6 5 4 4 4 2 1 1 0 -0 -1 -1 -2 -2 -2 -2 -3 -4 -4
8 8 8 8 9 8 9 9 9 9 8 8 8 9 10 8 6 5 5 6 6 6 6 6 6 5 3 2 2 2 1 0 -0 -1 -1 -2 -2 -2 -2 -3 -3 -4 -4 -4
8 8 8 9 9 8 9 9 9 9 8 8 7 8 8 7 5 5 6 6 6 6 5 5 5 4 2 1 1 0 -0 -1 -1 -1 -2 -2 -2 -3 -3 -4 -4 -4 -5 -6
7 8 8 9 9 9 8 9 9 9 8 8 8 6 6 7 7 6 5 5 5 5 4 3 3 2 1 0 -0 -1 -1 -1 -2 -2 -2 -2 -3 -3 -4 -4 -4 -5 -6 -7
Wind_Speed
2 4 10 12 11 7 3 7 9 7 7 8 13 17 15 10 12 13 14 11 13 12 11 8 7 7 6 6 11 14 15 14 14 12 10 8 8 6 6 6 10 13 14 15
4 11 11 6 6 6 9 12 11 10 10 10 14 24 20 16 18 16 15 14 12 13 8 7 6 7 7 7 11 14 15 15 13 11 9 7 7 6 6 5 8 11 14 14
12 5 5 9 6 6 7 9 8 10 11 13 15 24 21 23 21 22 22 20 16 16 14 10 11 11 9 8 9 12 15 15 13 13 12 12 10 8 5 4 4 6 13 13
10 8 5 6 6 8 11 9 11 11 7 5 5 9 9 11 14 18 19 16 15 15 14 13 12 11 11 9 9 12 14 14 15 16 16 19 12 9 6 4 5 6 10 12
6 3 6 10 10 9 6 6 7 6 6 8 7 8 9 8 12 13 13 13 15 16 15 15 17 16 10 10 11 12 13 14 15 16 17 16 12 9 8 7 8 7 6 9
8 4 5 5 5 9 5 3 3 3 3 10 12 12 13 7 9 11 14 13 13 12 13 13 11 11 10 10 11 13 15 15 15 15 15 16 17 15 13 9 8 6 5 5
8 11 6 4 4 6 8 6 2 4 7 7 9 13 15 10 12 12 13 12 11 8 9 11 13 15 16 15 14 14 16 16 14 14 13 16 18 17 15 11 8 7 4 4
7 8 11 10 10 8 11 11 8 6 5 4 6 9 8 12 18 20 19 15 10 8 9 13 16 17 17 17 15 16 16 15 13 13 12 12 13 11 10 8 7 6 5 5
5 6 4 8 9 9 7 10 10 4 5 6 7 10 12 13 15 19 17 16 12 11 13 14 13 13 15 17 15 14 15 14 13 12 12 12 11 11 10 9 7 7 6 6
5 6 4 5 6 7 7 3 3 6 5 6 12 13 12 18 13 13 14 14 11 12 13 12 12 12 11 10 10 11 13 13 11 11 11 11 11 11 11 10 9 8 7 7
8 8 4 5 11 14 11 8 6 3 4 4 7 9 9 11 9 11 14 14 13 15 15 15 14 14 14 12 11 12 12 13 12 11 11 13 12 12 11 10 9 8 7 7
11 7 8 10 7 12 16 14 13 8 8 6 7 14 7 6 6 9 13 10 7 10 13 13 13 14 14 14 12 12 12 13 13 12 12 13 12 12 11 10 8 8 8 7
10 6 5 5 5 7 12 16 16 11 7 8 9 11 8 10 13 9 7 2 5 10 13 14 14 14 13 13 12 11 12 13 13 13 13 13 12 11 10 9 8 8 7 7
9 7 9 10 6 5 9 15 18 16 12 14 19 19 19 17 19 12 4 4 7 12 13 13 14 13 12 12 12 12 12 12 13 13 13 12 10 10 9 8 8 7 7 7
7 8 14 20 18 10 8 13 19 23 22 16 16 21 22 15 18 16 9 5 10 12 13 14 13 13 13 13 12 11 12 11 13 13 12 11 10 9 9 8 8 7 7 6
6 7 8 13 18 21 18 18 19 23 25 25 18 20 17 14 14 16 11 7 11 12 12 13 14 15 15 14 13 12 12 11 12 13 11 10 10 9 8 8 7 7 6 5
4 4 4 5 7 10 15 22 22 15 21 21 21 21 15 15 9 16 17 5 9 12 13 15 16 15 14 13 14 13 12 12 12 12 11 9 9 9 8 8 7 6 5 4
6 3 3 5 5 4 4 4 21 22 17 23 24 19 14 10 9 8 7 5 7 11 13 14 14 13 12 11 12 13 12 12 12 11 10 9 9 9 8 7 7 5 3 4
11 4 2 4 4 5 4 2 5 12 15 20 23 23 16 5 9 6 3 1 6 10 11 12 12 13 14 14 14 15 13 12 12 10 9 8 9 9 8 7 5 3 3 3
6 4 2 5 4 4 4 0 6 5 4 16 21 20 12 2 6 5 6 6 8 12 13 14 13 15 16 14 15 16 13 12 11 9 9 9 9 9 7 6 3 3 2 3
3 4 4 5 4 4 2 3 7 1 5 4 13 15 9 7 3 3 7 6 9 13 14 16 15 14 14 14 16 15 13 10 9 10 10 10 9 8 7 5 3 3 3 5
6 4 4 3 3 3 3 6 3 5 5 4 2 5 8 9 7 7 7 7 11 14 15 15 16 14 11 13 16 14 12 9 10 11 10 9 8 6 5 5 4 4 5 5
4 4 4 6 5 3 3 4 5 4 4 1 4 7 12 11 7 8 8 10 12 14 14 14 17 16 11 10 14 15 9 10 11 10 9 8 7 6 5 5 5 4 4 4
4 3 2 3 3 4 4 2 3 3 1 3 9 12 13 13 11 11 11 12 12 13 14 15 16 15 11 10 12 12 10 10 10 10 8 6 6 5 5 4 3 3 4 5
3 1 2 4 6 5 4 2 3 5 9 13 14 12 15 18 15 12 12 12 12 13 12 12 14 14 12 12 11 9 9 10 10 8 7 5 4 4 3 3 3 4 4 5
6 6 5 5 4 4 2 6 7 7 8 13 17 15 12 13 14 14 12 11 12 12 12 13 13 13 11 11 10 8 7 9 9 7 5 4 3 2 2 4 5 7 9 12
Wind_Direction
173 215 219 216 215 231 279 291 284 287 296 293 280 279 278 270 264 264 267 262 265 260 261 260 245 212 191 169 156 152 144 147 139 133 128 127 118 108 94 91 101 107 108 104
213 245 241 226 211 221 238 254 268 277 269 278 288 283 284 270 261 254 254 257 249 256 251 240 212 202 196 182 162 153 147 151 147 141 135 128 125 107 92 89 97 105 104 101
220 236 220 198 201 211 221 228 241 258 287 293 301 290 273 265 252 252 249 246 240 242 240 221 202 203 193 193 170 151 146 150 143 128 117 111 109 106 101 102 95 91 98 97
245 248 223 206 215 205 248 215 229 247 256 272 230 280 262 275 269 250 249 244 236 231 226 213 199 198 196 179 158 147 147 145 141 138 141 144 148 146 141 142 121 99 96 96
232 207 220 228 220 201 227 192 207 223 231 262 238 262 276 258 260 255 250 240 235 227 215 207 200 196 174 154 151 149 145 144 146 148 151 147 138 127 124 122 114 101 90 92
234 216 199 218 223 200 208 220 238 227 239 256 216 221 268 228 242 238 244 245 243 230 212 205 188 159 143 147 151 153 149 149 151 151 151 146 138 135 135 135 124 117 104 85
238 231 210 198 203 187 182 192 229 218 210 235 187 211 249 261 271 263 264 264 259 235 196 171 166 164 162 161 160 157 155 152 152 144 142 144 142 144 145 146 140 134 118 90
234 244 205 195 193 177 189 187 194 204 217 252 213 234 244 241 248 254 255 257 251 220 191 182 181 174 165 161 163 160 160 151 147 140 133 129 133 135 133 134 132 122 112 110
237 262 253 213 191 169 179 207 221 250 273 273 254 272 286 256 243 239 240 244 232 204 191 187 176 168 162 159 162 157 152 144 141 138 132 126 126 128 128 122 113 107 107 107
224 261 229 207 200 232 197 195 178 199 215 247 254 253 255 278 270 263 260 258 239 206 189 175 160 147 143 140 132 130 140 137 128 126 126 124 119 117 118 117 114 109 102 94
190 229 237 203 209 194 195 214 219 215 215 236 272 264 229 229 253 287 284 254 223 198 185 169 156 140 129 120 119 120 123 121 117 116 116 116 113 111 109 109 110 107 98 94
201 224 230 226 227 211 204 205 197 205 224 223 250 259 258 253 295 317 302 279 224 177 157 145 134 128 128 125 123 122 123 120 117 116 114 113 112 110 108 107 107 106 103 97
184 221 247 243 224 207 220 226 214 221 251 230 234 268 268 285 309 327 316 356 117 127 130 131 132 131 127 123 120 119 121 118 115 115 116 113 112 111 111 111 110 107 104 91
187 225 222 236 234 194 209 218 215 210 228 238 242 266 290 304 303 319 333 111 136 135 139 140 137 131 127 123 121 121 117 119 118 117 118 116 115 115 117 116 112 105 97 82
205 244 234 240 235 214 212 219 215 214 222 229 250 262 271 299 313 323 314 167 157 148 148 146 140 132 128 123 121 124 123 120 120 119 117 116 116 117 115 112 107 99 86 76
219 258 261 256 236 227 231 228 222 224 226 233 253 271 275 283 288 310 307 194 172 158 154 144 140 140 139 137 134 130 126 121 119 118 118 119 119 117 114 111 105 93 79 66
244 260 282 288 297 236 238 231 222 227 229 231 237 251 265 277 311 323 327 260 178 165 161 154 151 146 140 139 139 135 130 121 115 115 118 121 121 115 110 106 96 82 68 50
198 210 256 286 280 254 274 241 214 213 225 222 237 256 263 285 313 278 275 260 180 162 158 151 139 130 129 127 125 122 120 116 115 116 119 122 115 108 103 94 85 74 53 33
205 176 262 277 280 281 308 336 139 190 237 222 228 242 257 309 323 295 323 347 156 146 141 133 130 133 131 128 126 119 112 112 115 119 118 115 110 105 98 90 81 68 45 17
197 217 274 294 315 339 325 292 102 112 273 219 217 233 240 89 310 315 18 36 92 110 116 117 119 122 120 121 121 117 118 119 119 117 110 102 100 102 99 95 78 49 24 347
188 207 221 262 289 289 322 126 122 116 308 300 207 212 189 171 218 15 48 49 84 97 106 114 115 116 120 122 119 117 118 116 114 107 100 96 97 98 97 87 67 36 10 359
193 203 219 221 265 284 121 136 191 259 296 331 92 145 130 117 99 88 81 86 94 100 107 112 110 107 109 116 117 114 111 111 107 103 99 96 92 88 86 75 47 28 16 353
212 208 207 214 233 244 212 233 280 290 283 302 109 122 122 116 113 105 106 104 102 104 106 110 111 106 93 96 113 114 117 114 108 102 101 101 92 77 68 54 33 16 359 340
255 214 226 280 273 265 275 286 331 338 356 86 113 124 123 119 120 124 119 108 101 99 104 108 106 103 94 89 97 113 120 114 110 108 107 101 89 73 48 33 21 358 341 329
238 199 230 258 268 281 246 150 109 81 90 95 89 101 117 126 127 122 109 104 103 101 96 100 105 106 103 103 102 107 115 115 111 109 104 97 88 74 42 12 345 331 305 296
212 188 187 234 224 189 188 139 135 127 121 122 117 112 115 127 123 117 108 105 106 103 103 103 104 109 109 107 105 107 114 117 116 113 110 106 92 63 31 3 343 338 327 325
Height
1481 1485 1482 1481 1482 1482 1481 1482 1483 1479 1474 1475 1470 1464 1460 1458 1454 1451 1448 1447 1448 1449 1451 1453 1455 1456 1456 1458 1460 1463 1467 1471 1475 1478 1482 1486 1490 1493 1496 1500 1502 1504 1506 1507
1483 1479 1477 1478 1479 1480 1480 1479 1480 1479 1474 1472 1467 1455 1453 1451 1448 1445 1443 1441 1442 1443 1444 1446 1449 1451 1451 1453 1455 1458 1462 1467 1470 1474 1480 1484 1487 1491 1495 1498 1501 1503 1505 1505
1478 1473 1471 1475 1479 1481 1481 1480 1479 1481 1474 1469 1469 1448 1443 1435 1435 1434 1432 1432 1433 1436 1437 1439 1443 1445 1447 1449 1451 1453 1456 1461 1466 1472 1477 1481 1485 1488 1492 1496 1499 1502 1503 1504
1477 1471 1473 1475 1479 1479 1480 1476 1476 1475 1479 1481 1469 1463 1432 1431 1427 1424 1423 1423 1423 1426 1428 1431 1435 1439 1441 1444 1448 1450 1453 1457 1463 1470 1473 1477 1481 1485 1490 1494 1497 1500 1502 1502
1472 1470 1471 1474 1475 1475 1476 1471 1473 1473 1475 1475 1469 1466 1432 1426 1426 1421 1417 1415 1414 1415 1418 1422 1427 1431 1435 1440 1443 1446 1449 1455 1462 1467 1471 1475 1479 1483 1488 1493 1495 1498 1499 1499
1466 1466 1467 1468 1468 1470 1471 1473 1472 1472 1472 1471 1460 1463 1429 1424 1419 1415 1410 1407 1407 1406 1409 1414 1420 1423 1429 1435 1439 1442 1446 1452 1459 1464 1469 1473 1477 1481 1486 1490 1493 1495 1496 1496
1461 1459 1461 1464 1467 1466 1469 1473 1477 1474 1469 1458 1447 1449 1427 1415 1413 1411 1408 1403 1403 1402 1403 1407 1412 1416 1423 1429 1434 1438 1443 1449 1456 1462 1467 1471 1476 1480 1485 1489 1492 1494 1494 1494
1463 1466 1455 1456 1457 1460 1460 1462 1466 1468 1460 1457 1441 1442 1422 1410 1407 1404 1401 1399 1398 1399 1400 1403 1407 1412 1417 1424 1431 1435 1441 1447 1454 1460 1465 1469 1475 1480 1485 1489 1491 1492 1493 1493
1458 1456 1450 1448 1447 1451 1460 1458 1452 1456 1451 1458 1444 1423 1408 1404 1400 1395 1392 1392 1392 1394 1396 1399 1403 1410 1415 1421 1428 1433 1440 1446 1453 1458 1463 1468 1474 1480 1484 1487 1489 1490 1491 1491
1451 1455 1447 1446 1448 1446 1452 1453 1467 1459 1462 1457 1433 1421 1415 1399 1395 1394 1392 1389 1386 1387 1390 1394 1398 1405 1414 1421 1427 1434 1441 1446 1452 1458 1462 1467 1473 1478 1482 1485 1486 1487 1488 1489
1449 1451 1446 1444 1441 1437 1446 1448 1447 1442 1447 1445 1431 1413 1395 1392 1393 1388 1382 1379 1377 1378 1383 1388 1394 1401 1409 1420 1429 1435 1441 1445 1451 1457 1462 1467 1471 1476 1480 1482 1484 1485 1486 1486
1443 1443 1438 1434 1428 1427 1428 1428 1434 1439 1436 1431 1430 1405 1388 1390 1387 1384 1377 1372 1370 1372 1379 1385 1392 1401 1409 1417 1427 1434 1440 1444 1450 1457 1462 1466 1470 1474 1477 1480 1482 1482 1482 1483
1436 1439 1433 1428 1429 1426 1425 1421 1422 1425 1428 1430 1424 1395 1380 1386 1384 1383 1377 1371 1371 1373 1377 1384 1393 1402 1411 1417 1425 1433 1439 1443 1449 1456 1462 1465 1469 1473 1476 1478 1480 1480 1480 1480
1430 1429 1427 1420 1416 1418 1418 1416 1416 1421 1420 1416 1405 1395 1387 1388 1386 1382 1376 1375 1376 1375 1380 1386 1393 1402 1411 1418 1425 1432 1438 1443 1448 1455 1461 1464 1468 1472 1474 1476 1477 1477 1477 1476
1427 1422 1415 1409 1407 1412 1409 1408 1409 1411 1409 1411 1399 1398 1389 1390 1387 1382 1378 1377 1378 1377 1381 1387 1393 1401 1411 1418 1426 1433 1438 1443 1448 1454 1460 1463 1468 1471 1472 1473 1474 1474 1473 1472
1421 1419 1412 1403 1400 1402 1400 1399 1400 1401 1401 1399 1400 1396 1388 1391 1386 1380 1375 1375 1375 1376 1381 1387 1395 1403 1411 1419 1426 1433 1438 1442 1448 1454 1458 1463 1466 1468 1469 1470 1471 1470 1470 1470
1420 1419 1413 1400 1391 1390 1397 1387 1387 1390 1392 1393 1396 1384 1386 1388 1386 1379 1372 1373 1374 1378 1383 1389 1397 1404 1411 1420 1427 1432 1437 1443 1448 1454 1458 1462 1464 1466 1467 1468 1468 1468 1468 1467
1413 1416 1412 1400 1395 1382 1373 1370 1372 1377 1378 1381 1381 1375 1376 1379 1380 1379 1378 1376 1378 1381 1386 1392 1397 1405 1414 1422 1428 1433 1438 1443 1448 1453 1457 1460 1462 1464 1465 1465 1466 1466 1465 1464
1404 1412 1409 1402 1384 1373 1370 1368 1371 1376 1375 1370 1372 1372 1376 1379 1380 1376 1375 1375 1379 1383 1387 1392 1399 1407 1415 1421 1428 1433 1438 1443 1448 1452 1456 1459 1460 1462 1463 1463 1464 1463 1462 1460
1404 1406 1407 1396 1388 1381 1373 1368 1369 1373 1374 1359 1364 1370 1376 1380 1382 1376 1375 1376 1379 1382 1388 1395 1403 1410 1416 1422 1429 1434 1438 1443 1448 1452 1455 1457 1458 1460 1461 1462 1462 1460 1458 1456
1400 1403 1404 1395 1389 1380 1373 1370 1373 1376 1365 1355 1357 1363 1372 1377 1380 1379 1377 1380 1381 1385 1391 1399 1406 1412 1418 1424 1430 1435 1440 1444 1448 1451 1453 1455 1458 1459 1460 1460 1459 1457 1455 1452
1395 1392 1392 1394 1389 1388 1374 1376 1376 1369 1361 1357 1358 1361 1366 1373 1380 1381 1383 1385 1384 1389 1396 1403 1408 1415 1421 1427 1432 1436 1441 1445 1447 1450 1452 1455 1457 1458 1458 1457 1456 1453 1451 1448
1389 1384 1384 1385 1382 1374 1371 1370 1367 1364 1361 1359 1359 1362 1368 1375 1381 1384 1388 1390 1392 1396 1401 1408 1413 1418 1424 1430 1435 1437 1441 1444 1447 1450 1453 1455 1456 1456 1456 1455 1453 1450 1447 1444
1382 1380 1380 1377 1373 1371 1369 1368 1366 1364 1361 1360 1361 1366 1371 1377 1385 1389 1392 1394 1397 1402 1407 1412 1417 1421 1426 1432 1436 1439 1442 1445 1448 1450 1452 1453 1453 1453 1453 1451 1449 1446 1443 1440
1379 1378 1378 1375 1370 1368 1367 1368 1367 1366 1365 1365 1368 1372 1378 1383 1390 1394 1396 1400 1404 1408 1413 1417 1421 1424 1429 1433 1437 1440 1443 1446 1448 1449 1450 1451 1451 1451 1450 1448 1446 1444 1440 1436
1373 1371 1374 1371 1367 1367 1366 1366 1369 1369 1370 1371 1373 1380 1387 1391 1393 1398 1402 1406 1410 1414 1418 1421 1425 1428 1431 1435 1438 1441 1444 1446 1447 1448 1449 1449 1449 1448 1447 1446 1444 1441 1439 1434